CAPE
977 996 999 955 882 882 791 715 613 40 542 388 305 134 1 0 0 183 242 276 272 321 573 406 309 40 193 257 372 377 373 335 303 110 16 55 116 284 351 248 243 264 191 174 172 169 166 234 209 163 118 37 12 29 24 2 4 6 4 6 5 4 3 4 4 7 6 5 6 6 4 4 4 2 4 4 6 6 6 8 7 8 12 14 19
918 938 959 947 901 874 811 748 626 389 409 81 55 21 3 0 0 42 229 118 209 277 395 259 246 107 159 398 407 373 368 348 304 43 73 129 185 321 364 542 438 371 256 223 238 219 168 74 75 66 63 34 14 8 5 4 6 6 2 1 3 2 2 4 5 5 4 4 4 4 3 3 3 3 3 4 4 4 4 5 6 6 8 11 12
871 891 951 944 977 929 907 799 654 402 138 249 331 333 127 114 81 237 38 0 255 239 240 256 200 210 346 421 479 408 389 373 314 214 440 415 108 127 321 194 160 323 685 498 272 245 226 189 173 146 99 48 74 56 24 6 5 1 2 0 1 2 3 4 4 4 4 4 3 3 6 4 3 4 5 5 4 4 3 4 5 5 6 7 9
936 824 798 848 849 792 741 573 536 459 358 328 468 560 420 510 314 301 99 32 101 102 56 13 74 142 270 571 558 457 424 413 365 530 524 386 58 17 62 220 266 376 604 373 344 284 233 298 281 258 159 120 82 7 1 0 0 0 1 1 3 4 3 4 5 4 7 5 5 5 6 6 8 5 6 4 4 4 4 4 3 5 7 5 5
964 946 874 752 548 633 572 507 543 558 514 507 505 579 449 470 392 327 216 31 51 58 102 4 32 85 418 636 590 553 544 532 574 602 544 396 6 0 19 121 281 678 542 262 565 573 449 402 318 228 136 111 47 22 1 1 0 2 3 3 3 1 3 5 6 5 5 8 9 8 4 3 6 6 4 4 3 4 5 4 5 5 5 4 4
796 755 778 671 485 493 495 430 480 599 645 826 431 307 148 427 133 148 392 130 21 12 17 45 60 76 147 667 721 650 601 609 636 607 517 341 1 0 2 8 19 153 462 701 878 730 715 552 460 287 176 42 34 16 9 5 3 3 2 2 3 3 2 0 0 0 1 5 6 6 5 6 4 4 3 3 3 3 5 6 6 6 5 6 6
756 720 725 615 458 391 62 367 429 523 679 873 346 430 348 295 331 424 247 291 83 197 13 15 80 221 210 607 773 691 596 622 635 605 491 319 26 13 3 4 116 248 393 631 1061 810 778 604 589 633 284 96 46 12 3 1 3 2 1 1 0 0 1 2 2 0 0 0 2 4 3 3 4 4 4 4 4 3 3 5 5 5 6 6 6
804 656 676 597 442 374 373 388 378 428 584 740 566 598 544 374 458 407 270 177 217 78 14 46 131 432 483 559 735 732 672 603 602 554 458 360 281 114 121 252 311 556 660 378 465 668 646 529 692 796 604 257 216 160 73 39 4 0 0 0 0 1 1 0 2 2 2 2 1 2 2 2 2 2 2 2 3 4 4 4 4 7 7 7 8
730 654 652 484 384 78 333 161 413 500 586 680 594 506 452 411 493 334 24 38 58 66 13 31 202 515 579 535 674 727 674 604 587 516 465 450 374 306 334 503 682 780 341 312 410 487 386 416 672 764 769 513 355 133 106 97 100 11 0 0 0 0 0 0 1 0 1 1 0 1 0 0 0 1 2 2 3 4 4 2 3 4 5 5 5
653 628 565 508 220 75 418 471 442 452 457 722 432 412 351 299 452 432 367 354 301 329 109 106 388 540 565 512 541 697 671 596 561 494 459 429 422 373 442 565 486 418 424 403 440 437 390 430 518 607 795 530 384 155 259 292 233 128 102 50 6 0 0 0 0 1 2 2 2 2 1 1 1 0 0 1 2 4 3 2 1 2 2 3 4
559 545 545 487 365 320 485 490 438 471 394 448 451 492 329 415 375 429 363 393 366 265 345 386 448 488 468 474 451 442 572 579 513 491 466 434 414 455 365 350 335 395 482 512 508 482 280 282 348 326 408 548 336 256 326 455 259 274 285 248 178 129 68 28 0 0 0 0 0 0 0 1 0 0 0 0 1 3 2 1 1 1 1 3 2
532 650 602 448 418 468 558 473 539 519 367 390 420 379 406 318 414 483 415 382 347 338 435 462 474 476 501 537 511 416 343 491 510 467 438 368 426 422 391 337 403 356 360 428 489 487 438 341 364 475 484 548 370 456 323 419 359 433 310 326 337 331 271 186 63 0 0 0 0 0 0 0 3 7 3 1 1 1 1 0 0 0 0 0 0
508 575 514 434 418 410 475 470 493 421 379 293 298 526 395 399 477 494 387 336 237 420 501 446 399 372 408 417 473 476 289 295 398 292 356 392 412 470 380 236 273 332 269 288 329 396 493 437 426 486 298 303 443 395 403 467 390 351 373 559 609 484 384 377 224 57 9 0 0 0 0 3 18 52 40 2 1 0 0 0 1 3 3 2 3
505 461 495 460 365 209 375 486 536 422 402 389 99 312 391 523 383 452 342 273 140 376 402 314 224 235 260 273 337 347 305 298 347 323 193 304 285 323 301 228 252 279 258 296 264 302 441 440 367 346 239 79 1 1 31 39 462 490 442 477 427 434 410 401 312 309 155 60 47 22 32 32 34 125 135 56 0 0 0 0 1 1 3 5 5
601 605 505 489 478 167 35 473 582 341 450 319 359 361 506 389 435 432 361 264 305 334 393 69 55 187 152 131 128 146 124 197 163 192 206 133 108 214 202 260 362 352 331 311 308 294 325 422 408 302 244 246 279 257 113 376 623 664 569 547 536 463 723 460 401 464 346 254 178 147 120 112 126 113 30 123 140 63 50 12 3 0 1 21 19
688 689 710 572 462 305 208 261 367 293 350 410 433 456 608 382 448 416 365 352 391 339 362 332 104 27 24 46 109 120 116 147 131 100 111 192 224 199 230 288 306 350 371 296 168 65 261 295 363 279 223 0 0 170 334 406 512 588 536 527 585 496 674 616 512 356 574 376 309 274 159 162 194 148 178 203 281 142 110 82 57 19 17 90 138
620 600 638 681 502 223 252 397 427 494 409 478 648 680 473 213 470 481 426 404 414 379 339 282 41 2 0 8 20 52 85 141 104 34 124 191 216 241 45 154 232 294 274 208 188 154 208 182 252 286 244 0 248 272 309 296 343 518 499 699 618 593 487 390 423 546 312 390 378 322 252 271 226 174 181 167 162 151 165 159 130 71 99 146 74
605 573 590 562 477 392 487 564 594 676 774 719 607 747 637 587 511 508 432 386 378 383 409 468 301 28 0 0 0 13 9 62 74 35 118 172 176 208 180 190 169 196 235 157 159 140 6 0 135 222 212 166 195 269 253 270 333 376 403 442 485 623 553 445 414 399 271 465 439 388 369 316 227 232 209 200 205 160 154 143 75 57 44 0 0
567 535 514 482 446 432 750 675 644 861 868 843 774 820 813 684 530 520 407 389 377 411 503 370 241 348 306 26 140 4 2 0 6 57 158 158 250 240 183 229 254 216 184 83 0 183 191 190 176 171 132 0 0 0 0 120 172 3 410 447 448 482 509 526 554 460 403 454 504 512 508 384 272 163 72 20 9 5 2 1 0 1 2 0 0
424 513 462 579 546 703 850 786 1015 1154 836 917 765 928 969 802 540 490 433 416 449 454 476 360 229 532 341 76 229 0 0 0 2 62 74 91 125 193 216 4 253 215 164 159 170 28 153 170 166 0 0 0 0 0 0 0 0 0 242 416 455 450 352 0 0 81 153 144 466 592 427 310 168 28 3 0 0 0 0 0 0 0 0 0 0
407 398 475 578 612 779 852 828 1290 1078 856 720 916 957 1002 816 618 583 578 558 529 478 478 359 266 584 436 378 236 0 0 0 0 0 44 123 138 147 159 157 167 165 182 46 1 84 205 188 169 1 0 17 0 0 0 0 0 0 0 370 359 0 0 0 0 0 0 22 46 137 134 108 123 10 0 0 0 0 0 0 0 0 0 0 0
411 394 485 562 613 842 915 953 1270 1145 989 790 685 783 787 788 795 695 586 554 556 504 471 384 346 465 427 301 12 0 0 0 0 0 1 43 124 139 131 202 161 137 13 0 0 0 161 71 0 0 0 0 0 0 0 0 0 0 0 181 2 0 0 0 0 0 0 3 12 7 6 6 10 1 0 0 0 0 0 0 0 0 0 0 0
448 412 470 537 672 884 817 933 1235 1173 992 754 719 676 745 785 754 707 680 564 594 597 492 474 460 434 369 5 23 17 0 0 0 0 0 6 92 120 149 38 0 5 0 0 0 0 0 0 0 0 0 0 0 0 0 0 0 0 0 0 0 0 0 0 0 0 0 0 5 9 6 9 2 0 0 0 0 0 0 0 0 0 0 0 0
510 576 539 642 786 806 920 994 1028 994 902 857 772 709 663 682 638 618 538 532 576 622 521 565 553 411 364 0 0 0 0 0 0 0 0 1 18 50 24 0 0 0 0 0 0 0 0 30 0 0 0 0 0 0 0 0 0 0 0 0 0 0 0 0 0 0 0 0 0 7 6 6 3 3 2 2 1 1 1 0 0 0 0 0 0
601 610 639 724 816 813 883 968 905 895 934 768 820 718 641 702 681 681 657 611 596 598 644 639 546 428 370 261 0 0 0 0 0 0 0 0 0 0 0 0 0 0 0 0 0 66 68 0 0 0 0 0 0 0 0 0 0 0 0 0 0 0 0 0 0 0 0 0 0 0 2 3 3 3 3 6 4 9 1 0 0 0 0 0 0
506 633 685 691 673 647 764 651 641 847 764 729 767 765 829 832 852 849 778 676 520 424 518 552 434 498 420 207 438 379 0 273 169 0 0 0 0 0 0 0 0 0 5 89 33 7 10 20 0 0 0 0 0 0 0 0 0 0 0 0 0 0 0 0 0 0 0 0 0 0 0 0 0 1 4 0 0 0 0 0 0 0 0 0 0
545 606 570 619 600 620 620 517 473 629 694 814 908 973 976 964 937 903 802 606 542 511 460 462 474 504 461 56 9 4 0 326 388 274 11 0 0 0 0 0 0 0 37 57 47 7 0 0 0 0 0 0 0 0 0 0 0 0 0 0 0 0 0 0 0 0 0 0 0 0 0 0 0 0 0 0 0 0 0 0 0 0 0 0 0
508 457 513 587 566 533 500 504 490 620 656 744 856 988 1045 1019 990 927 812 703 671 626 502 528 611 570 460 495 450 97 0 98 368 307 264 249 0 0 0 0 0 7 38 24 19 59 0 0 0 0 0 0 0 0 0 0 0 0 0 0 0 0 0 0 0 0 0 0 0 0 0 0 0 0 0 0 0 0 0 0 0 0 0 0 0
438 406 412 456 427 430 423 430 438 485 571 628 726 888 1001 1037 1015 934 866 778 737 748 586 524 600 623 585 591 610 590 381 452 490 399 370 145 0 0 0 0 0 0 0 0 0 0 0 0 0 0 0 0 0 0 0 0 0 0 0 0 0 0 0 0 0 0 0 0 0 0 0 0 0 0 0 0 0 0 0 0 0 0 0 0 0
409 343 343 366 399 402 392 392 372 420 497 633 696 745 829 962 1006 974 916 863 851 775 768 679 613 598 593 617 701 743 655 427 457 503 380 206 0 0 0 0 0 0 0 0 0 0 0 0 0 0 0 0 0 0 0 0 0 0 0 0 0 0 0 0 0 0 0 0 0 0 0 0 0 0 0 0 0 0 0 0 0 0 0 0 0
389 362 327 399 427 401 397 384 370 328 399 488 561 561 610 697 800 836 843 877 841 802 813 776 706 612 563 535 577 607 749 609 377 478 326 19 0 0 0 0 0 0 0 0 0 0 0 0 0 0 0 0 0 0 0 0 0 0 0 0 0 0 0 0 0 0 0 0 0 0 0 0 0 0 0 0 0 0 0 0 0 0 0 0 0
395 348 383 412 391 384 408 399 367 317 318 325 365 441 493 510 608 688 751 834 860 776 729 776 780 688 548 592 499 397 615 559 482 460 292 94 0 0 0 0 0 0 0 0 0 0 0 0 0 0 0 0 0 0 0 0 0 0 0 0 0 0 0 0 0 0 0 0 0 0 0 0 0 0 0 0 0 0 0 0 0 0 0 0 0
413 380 405 392 368 394 408 392 362 320 305 263 384 432 404 387 467 558 573 720 745 689 653 801 930 788 617 605 466 404 509 571 343 383 438 431 334 96 0 0 0 0 0 0 0 0 0 0 0 0 0 0 0 0 0 0 0 0 0 0 0 0 0 0 0 0 0 0 0 0 0 0 0 0 0 0 0 0 0 0 0 0 0 0 0
384 402 364 354 353 377 368 348 323 319 293 202 225 272 298 341 397 503 641 653 629 709 720 863 1000 868 621 459 444 476 578 387 282 301 46 282 327 238 170 0 0 0 0 0 0 0 0 0 0 0 0 0 0 0 0 0 0 0 0 0 0 0 0 0 0 0 0 0 0 0 0 0 0 0 0 0 0 0 0 0 0 0 0 0 0
443 380 310 317 280 264 266 268 257 256 257 0 178 26 190 278 364 398 535 643 629 669 795 909 982 868 730 553 446 504 479 216 271 321 257 226 238 177 132 59 43 37 42 6 0 0 0 0 0 0 0 0 0 0 0 0 0 0 0 0 0 0 0 0 0 0 0 0 0 0 0 0 0 0 0 0 0 0 0 0 0 0 0 0 0
348 236 257 236 164 170 225 198 161 232 42 0 0 0 0 0 0 174 331 389 447 524 658 799 871 821 796 581 474 544 430 146 204 230 212 184 207 124 89 21 0 0 0 0 0 0 0 0 0 0 0 0 0 0 0 0 0 0 0 0 0 0 0 0 0 0 0 0 0 0 0 0 0 0 0 0 0 0 0 0 0 0 0 0 0
272 235 254 197 96 58 152 193 158 124 28 0 0 0 0 0 0 0 0 144 301 395 446 572 650 718 817 694 585 577 444 375 143 82 0 0 0 0 0 0 0 2 6 4 4 0 0 0 0 0 0 0 0 0 0 0 0 0 0 0 0 0 0 0 0 0 0 0 0 0 0 0 0 0 0 0 0 0 0 0 0 0 0 0 0
259 276 222 133 3 5 94 162 118 12 0 0 0 0 0 0 0 0 0 0 286 357 397 492 575 625 780 734 594 515 386 276 91 0 0 0 0 0 0 0 0 0 0 0 0 0 0 0 0 0 0 0 0 0 0 0 0 0 0 0 0 0 0 0 0 0 0 0 0 0 0 0 0 0 0 0 0 0 0 0 0 0 0 0 0
308 258 214 68 12 1 46 98 35 0 0 0 0 0 0 0 0 0 0 0 17 283 395 521 568 581 670 683 580 434 259 116 0 0 0 0 0 0 0 0 0 0 0 0 0 0 0 0 0 0 0 0 0 0 0 0 0 0 0 0 0 0 0 0 0 0 0 0 0 0 0 0 0 0 0 0 0 0 0 0 0 0 0 0 0
316 259 174 93 52 0 0 94 38 0 0 0 0 0 0 0 0 0 0 0 0 0 286 463 463 439 516 422 255 0 60 0 2 2 0 0 0 0 0 0 0 0 0 0 0 0 0 0 0 0 0 0 0 0 0 0 0 0 0 0 0 0 0 0 0 0 0 0 0 0 0 0 0 0 0 0 0 0 0 0 0 0 0 0 0
274 172 194 109 52 0 0 57 89 0 0 0 0 0 0 0 0 0 0 0 0 0 141 307 207 79 25 149 0 0 0 0 0 0 0 0 0 0 0 0 0 0 0 0 0 0 0 0 0 0 0 0 0 0 0 0 0 0 0 0 0 0 0 0 0 0 0 0 0 0 0 0 0 0 0 0 0 0 0 0 0 0 0 0 0
226 123 149 88 56 0 0 36 89 0 0 0 0 0 0 0 0 0 0 0 66 67 76 127 199 172 0 0 36 39 25 20 0 0 0 0 0 0 0 0 0 0 0 0 0 0 0 0 0 0 0 0 0 0 0 0 0 0 0 0 0 0 0 0 0 0 0 0 0 0 0 0 0 0 0 0 0 0 0 0 0 0 0 0 0
187 193 171 101 73 0 0 44 108 0 0 0 0 0 0 0 0 0 0 51 132 140 0 0 0 0 0 0 33 54 56 51 0 0 0 0 0 0 0 0 0 0 0 0 0 0 0 0 0 0 0 0 2 0 0 0 0 0 0 0 0 0 0 0 0 0 0 0 0 0 0 0 0 0 0 0 0 0 0 0 0 0 0 0 0
187 172 157 94 46 0 0 26 82 0 0 0 0 0 0 0 0 0 0 0 53 81 98 0 0 0 0 0 0 0 0 0 0 0 0 0 0 0 0 0 0 0 0 0 0 39 0 0 0 0 0 0 0 0 0 12 30 0 0 0 0 0 0 0 0 0 0 0 0 0 0 0 0 0 0 0 0 0 0 0 0 0 0 0 0
197 139 130 81 36 0 0 0 0 0 0 0 0 0 0 0 0 0 0 0 0 0 84 123 0 0 0 0 0 0 0 0 0 0 0 0 0 0 0 0 0 0 0 0 0 0 0 0 0 0 57 0 0 0 0 0 0 0 0 74 0 0 0 0 0 0 0 0 0 0 0 0 0 0 0 0 0 0 0 0 0 0 0 0 0
188 128 86 75 21 0 0 0 0 0 0 0 0 0 0 0 0 0 0 0 0 0 0 20 0 0 0 0 0 0 0 0 0 0 0 0 0 0 26 76 89 80 79 79 64 40 0 0 0 0 0 0 0 0 0 0 8 131 100 92 4 17 0 0 0 0 0 0 0 0 0 0 0 0 0 0 0 0 0 0 0 0 0 0 101
38 44 58 62 11 0 0 0 0 0 0 0 0 0 0 0 0 0 0 0 0 0 8 8 38 9 10 0 0 0 0 0 0 115 127 134 149 168 183 185 182 176 166 149 129 106 118 114 110 126 125 99 71 74 50 16 12 87 130 185 196 185 180 139 117 142 136 119 126 120 14 0 0 0 0 120 133 131 139 151 150 145 134 130 126
0 0 12 14 0 0 0 0 0 0 0 0 0 0 0 0 0 0 0 0 0 20 6 0 32 51 62 48 0 0 0 0 0 94 54 0 110 123 127 180 194 188 171 156 145 143 136 126 118 111 106 0 0 0 0 0 22 71 93 142 0 0 0 0 0 10 94 63 24 0 0 0 0 0 0 97 118 79 0 0 136 154 169 181 177
0 0 0 13 2 6 4 0 0 0 0 0 0 0 0 1 1 8 7 1 1 0 0 0 0 0 0 13 0 0 0 0 87 106 91 71 82 90 102 114 153 151 154 136 137 139 132 56 0 0 0 0 0 0 0 0 0 0 36 31 40 0 55 16 0 0 0 0 0 0 0 0 0 29 93 113 138 150 154 149 144 142 153 163 144
0 0 0 7 10 14 8 2 0 0 0 0 0 0 0 11 14 14 0 0 0 0 0 0 0 0 0 25 6 6 0 0 10 45 0 0 0 0 10 0 0 0 0 0 20 19 0 0 0 0 0 0 0 0 0 0 0 0 0 0 0 0 0 0 0 2 4 0 0 0 0 0 29 64 64 82 100 107 100 86 50 11 12 14 80
0 0 0 0 12 12 6 3 0 0 0 0 0 0 0 0 12 31 15 0 3 0 0 0 0 44 50 57 65 14 23 0 0 0 26 11 0 0 0 0 0 0 0 0 0 0 0 0 0 0 0 0 0 0 0 0 0 0 0 0 0 0 0 0 1 21 0 0 0 0 3 1 0 2 3 3 3 3 1 0 0 0 0 0 0
Wind_Speed
21 22 21 18 17 17 16 14 14 nan 14 13 13 11 nan nan nan 9 10 6 7 10 12 9 7 nan 7 8 8 8 8 8 8 9 nan nan 13 17 22 23 21 22 23 23 22 21 20 19 18 19 19 nan nan nan nan nan nan nan nan nan nan nan nan nan nan nan nan nan nan nan nan nan nan nan nan nan nan nan nan nan nan nan nan nan nan
20 20 20 17 16 16 15 14 13 14 14 nan nan nan nan nan nan nan 11 9 10 10 11 8 9 7 8 9 8 8 8 9 9 nan nan 11 13 16 22 19 17 18 20 20 20 20 20 nan nan nan nan nan nan nan nan nan nan nan nan nan nan nan nan nan nan nan nan nan nan nan nan nan nan nan nan nan nan nan nan nan nan nan nan nan nan
19 19 17 16 17 18 16 16 15 13 13 11 12 11 11 9 nan 14 nan nan 11 10 9 9 8 8 8 10 9 9 9 10 10 10 10 12 13 14 16 20 17 16 14 16 18 18 18 17 16 16 nan nan nan nan nan nan nan nan nan nan nan nan nan nan nan nan nan nan nan nan nan nan nan nan nan nan nan nan nan nan nan nan nan nan nan
19 17 16 16 18 19 18 19 18 16 13 11 11 16 15 11 15 13 nan nan 11 11 nan nan nan 7 9 11 9 9 8 9 10 10 11 12 nan nan nan 11 15 14 15 14 13 15 16 16 16 15 15 15 nan nan nan nan nan nan nan nan nan nan nan nan nan nan nan nan nan nan nan nan nan nan nan nan nan nan nan nan nan nan nan nan nan
18 17 16 16 18 19 19 18 19 17 16 14 18 23 16 10 16 12 11 nan nan nan 12 nan nan nan 10 10 9 9 9 9 9 9 11 12 nan nan nan 8 8 11 14 13 9 11 13 14 14 14 14 14 nan nan nan nan nan nan nan nan nan nan nan nan nan nan nan nan nan nan nan nan nan nan nan nan nan nan nan nan nan nan nan nan nan
17 16 17 18 18 17 16 16 19 20 20 20 23 21 12 11 17 13 14 14 nan nan nan nan nan nan 10 9 8 9 10 10 8 9 11 11 nan nan nan nan nan 7 7 10 10 11 12 11 12 13 13 nan nan nan nan nan nan nan nan nan nan nan nan nan nan nan nan nan nan nan nan nan nan nan nan nan nan nan nan nan nan nan nan nan nan
13 14 16 18 17 15 nan 15 17 19 20 22 23 19 11 10 14 13 14 14 nan 9 nan nan nan 9 10 9 9 9 9 9 8 8 10 8 nan nan nan nan 6 6 5 5 8 8 9 9 9 11 10 nan nan nan nan nan nan nan nan nan nan nan nan nan nan nan nan nan nan nan nan nan nan nan nan nan nan nan nan nan nan nan nan nan nan
11 13 16 16 15 14 14 14 17 18 19 21 22 19 11 10 11 12 12 10 9 nan nan nan 9 10 10 9 8 9 9 9 8 8 8 7 6 5 5 4 5 5 5 6 6 6 8 7 6 7 7 7 7 7 nan nan nan nan nan nan nan nan nan nan nan nan nan nan nan nan nan nan nan nan nan nan nan nan nan nan nan nan nan nan nan
11 13 16 15 14 nan 15 16 16 17 18 19 20 18 14 10 12 8 nan nan nan nan nan nan 9 9 10 11 9 9 9 9 9 7 6 6 5 5 4 4 4 5 6 6 5 5 6 4 5 7 5 5 5 6 6 nan nan nan nan nan nan nan nan nan nan nan nan nan nan nan nan nan nan nan nan nan nan nan nan nan nan nan nan nan nan
12 13 15 14 14 nan 15 17 17 16 18 17 16 15 14 12 11 7 7 10 7 7 8 9 9 10 10 10 10 9 8 9 8 6 6 6 5 4 4 3 4 5 6 4 3 4 8 7 8 11 10 7 5 4 5 7 9 10 10 nan nan nan nan nan nan nan nan nan nan nan nan nan nan nan nan nan nan nan nan nan nan nan nan nan nan
12 14 15 14 15 14 15 15 16 16 17 17 16 15 15 12 9 9 9 8 9 7 9 11 11 11 11 11 10 10 8 8 8 7 6 5 6 5 3 3 3 4 4 2 2 2 5 6 9 9 11 10 6 3 5 6 8 9 9 9 10 11 nan nan nan nan nan nan nan nan nan nan nan nan nan nan nan nan nan nan nan nan nan nan nan
11 12 14 14 13 14 15 14 14 14 16 18 17 17 14 10 8 10 11 10 9 9 10 13 13 13 12 11 11 10 8 7 7 6 6 5 5 4 2 1 4 3 3 3 2 1 3 5 7 11 11 11 12 11 8 5 2 6 7 8 8 10 11 11 nan nan nan nan nan nan nan nan nan nan nan nan nan nan nan nan nan nan nan nan nan
10 12 13 14 13 16 16 14 14 13 16 17 16 17 14 12 9 8 12 12 9 7 9 12 15 12 12 12 11 10 9 8 8 7 4 5 4 4 4 4 4 3 2 2 1 2 3 4 6 8 9 8 8 8 10 9 6 1 4 5 4 6 9 11 12 nan nan nan nan nan nan nan nan nan nan nan nan nan nan nan nan nan nan nan nan
11 11 12 13 13 16 16 14 13 14 16 15 nan 15 13 11 10 11 9 13 11 8 10 13 11 11 11 10 10 10 10 10 9 9 6 5 5 6 6 5 4 1 1 1 1 2 3 5 6 6 7 nan nan nan nan nan 6 3 1 2 4 4 6 8 11 13 13 nan nan nan nan nan nan 10 13 nan nan nan nan nan nan nan nan nan nan
11 11 11 12 13 15 nan 12 12 14 16 16 16 16 12 11 10 12 10 10 11 7 9 nan nan 11 11 12 8 8 8 9 9 9 7 6 6 6 5 4 2 1 2 2 1 2 4 4 5 6 6 6 7 6 6 6 5 5 1 1 2 3 5 6 9 12 13 12 12 10 8 7 5 6 nan 13 14 nan nan nan nan nan nan nan nan
10 9 10 11 12 12 11 11 12 15 16 14 15 15 12 13 11 12 12 13 10 7 6 8 12 nan nan nan 8 10 10 9 9 nan 7 6 7 8 6 6 4 4 4 2 2 nan 4 4 4 5 6 nan nan 6 6 6 7 8 6 1 0 5 4 7 8 10 12 10 9 9 7 6 6 6 9 10 10 10 12 nan nan nan nan nan 15
9 9 9 8 9 10 10 11 13 15 16 13 13 12 11 12 12 13 11 13 11 10 6 9 nan nan nan nan nan nan nan 10 10 nan 7 7 7 8 nan 6 5 5 4 4 5 5 4 5 5 6 7 nan 8 7 7 7 8 8 7 6 6 7 7 6 6 8 9 9 8 8 7 8 9 10 11 10 9 11 13 15 18 nan nan 23 nan
9 9 9 8 9 10 11 12 14 15 14 12 14 14 14 14 13 13 12 11 14 12 10 8 8 nan nan nan nan nan nan nan nan nan 8 8 8 8 8 8 7 6 7 5 5 6 nan nan 7 7 8 9 8 8 8 8 8 8 8 9 11 8 9 7 8 9 9 10 10 9 11 12 12 13 13 15 17 19 20 20 nan nan nan nan nan
11 11 10 9 11 11 10 13 14 15 15 16 16 15 15 15 14 14 13 13 14 13 11 10 7 7 7 nan 11 nan nan nan nan nan 9 7 8 8 8 9 8 8 6 nan nan 7 8 7 7 8 8 nan nan nan nan 10 11 nan 13 14 13 12 10 9 10 12 12 12 12 13 14 15 17 18 nan nan nan nan nan nan nan nan nan nan nan
12 12 12 11 10 10 12 14 16 16 16 17 17 17 17 17 15 13 14 14 13 13 11 10 9 7 10 nan 14 nan nan nan nan nan nan nan 8 8 9 nan 8 8 7 6 7 nan 7 8 7 nan nan nan nan nan nan nan nan nan 11 15 14 13 12 nan nan nan 10 12 14 16 17 18 18 nan nan nan nan nan nan nan nan nan nan nan nan
13 13 12 11 10 11 14 15 17 17 17 18 18 19 17 17 16 15 14 13 13 12 12 9 9 9 13 14 16 nan nan nan nan nan nan 10 10 8 8 9 7 7 7 nan nan nan 8 7 7 nan nan nan nan nan nan nan nan nan nan 15 15 nan nan nan nan nan nan nan nan 14 15 16 17 nan nan nan nan nan nan nan nan nan nan nan nan
12 14 13 10 11 13 14 16 17 18 18 18 18 18 16 16 15 14 14 14 14 12 10 10 10 10 11 13 nan nan nan nan nan nan nan nan 10 10 8 7 7 6 nan nan nan nan 8 nan nan nan nan nan nan nan nan nan nan nan nan 17 nan nan nan nan nan nan nan nan nan nan nan nan nan nan nan nan nan nan nan nan nan nan nan nan nan
12 12 12 12 12 13 16 16 17 17 18 19 18 17 16 16 15 15 15 14 14 12 12 12 11 11 11 nan nan nan nan nan nan nan nan nan nan 11 9 nan nan nan nan nan nan nan nan nan nan nan nan nan nan nan nan nan nan nan nan nan nan nan nan nan nan nan nan nan nan nan nan nan nan nan nan nan nan nan nan nan nan nan nan nan nan
14 14 14 13 13 14 17 18 18 18 18 18 19 18 18 18 17 16 16 16 15 13 12 12 11 11 10 nan nan nan nan nan nan nan nan nan nan nan nan nan nan nan nan nan nan nan nan nan nan nan nan nan nan nan nan nan nan nan nan nan nan nan nan nan nan nan nan nan nan nan nan nan nan nan nan nan nan nan nan nan nan nan nan nan nan
16 16 15 15 16 18 19 18 17 18 19 20 19 19 19 19 18 17 17 17 15 14 13 12 12 11 9 10 nan nan nan nan nan nan nan nan nan nan nan nan nan nan nan nan nan nan nan nan nan nan nan nan nan nan nan nan nan nan nan nan nan nan nan nan nan nan nan nan nan nan nan nan nan nan nan nan nan nan nan nan nan nan nan nan nan
18 18 18 19 19 18 19 19 18 19 20 19 19 19 19 19 18 18 17 17 18 16 14 13 12 11 12 12 10 9 nan 12 13 nan nan nan nan nan nan nan nan nan nan nan nan nan nan nan nan nan nan nan nan nan nan nan nan nan nan nan nan nan nan nan nan nan nan nan nan nan nan nan nan nan nan nan nan nan nan nan nan nan nan nan nan
20 20 21 20 20 20 20 21 20 21 21 21 21 20 19 20 19 18 18 18 18 17 15 15 14 13 13 nan nan nan nan 11 13 12 nan nan nan nan nan nan nan nan nan nan nan nan nan nan nan nan nan nan nan nan nan nan nan nan nan nan nan nan nan nan nan nan nan nan nan nan nan nan nan nan nan nan nan nan nan nan nan nan nan nan nan
22 22 20 21 20 20 21 20 20 21 22 22 22 21 20 20 20 20 19 18 18 16 15 16 15 15 15 15 14 nan nan nan 11 12 9 9 nan nan nan nan nan nan nan nan nan nan nan nan nan nan nan nan nan nan nan nan nan nan nan nan nan nan nan nan nan nan nan nan nan nan nan nan nan nan nan nan nan nan nan nan nan nan nan nan nan
23 21 21 21 21 20 20 20 21 22 23 23 23 22 21 21 20 20 20 19 19 16 17 16 15 17 17 15 12 12 11 12 12 11 9 9 nan nan nan nan nan nan nan nan nan nan nan nan nan nan nan nan nan nan nan nan nan nan nan nan nan nan nan nan nan nan nan nan nan nan nan nan nan nan nan nan nan nan nan nan nan nan nan nan nan
24 22 23 21 20 20 20 20 23 24 23 23 22 22 22 21 20 21 21 21 19 19 17 17 17 18 17 15 14 11 11 13 12 11 10 10 nan nan nan nan nan nan nan nan nan nan nan nan nan nan nan nan nan nan nan nan nan nan nan nan nan nan nan nan nan nan nan nan nan nan nan nan nan nan nan nan nan nan nan nan nan nan nan nan nan
25 26 25 22 21 21 20 20 24 24 24 23 22 22 22 22 21 22 22 21 21 19 17 18 18 18 17 15 14 12 12 12 13 12 11 nan nan nan nan nan nan nan nan nan nan nan nan nan nan nan nan nan nan nan nan nan nan nan nan nan nan nan nan nan nan nan nan nan nan nan nan nan nan nan nan nan nan nan nan nan nan nan nan nan nan
26 27 25 22 20 20 19 20 23 24 24 24 23 22 23 23 23 23 22 22 21 19 17 17 18 17 17 15 14 13 12 14 14 13 12 nan nan nan nan nan nan nan nan nan nan nan nan nan nan nan nan nan nan nan nan nan nan nan nan nan nan nan nan nan nan nan nan nan nan nan nan nan nan nan nan nan nan nan nan nan nan nan nan nan nan
26 28 25 22 20 19 18 20 23 23 23 24 23 24 24 24 23 23 23 22 22 19 18 16 17 17 16 15 13 13 15 15 14 14 14 13 11 nan nan nan nan nan nan nan nan nan nan nan nan nan nan nan nan nan nan nan nan nan nan nan nan nan nan nan nan nan nan nan nan nan nan nan nan nan nan nan nan nan nan nan nan nan nan nan nan
26 28 26 22 20 20 19 22 24 23 22 23 23 25 25 25 24 24 24 23 22 19 17 16 16 15 16 15 13 15 16 16 14 15 nan 13 12 13 15 nan nan nan nan nan nan nan nan nan nan nan nan nan nan nan nan nan nan nan nan nan nan nan nan nan nan nan nan nan nan nan nan nan nan nan nan nan nan nan nan nan nan nan nan nan nan
25 27 26 23 22 21 21 23 26 24 23 nan 23 nan 25 24 24 24 24 23 21 19 17 16 16 16 16 15 13 16 15 17 13 15 16 13 15 14 14 nan nan nan nan nan nan nan nan nan nan nan nan nan nan nan nan nan nan nan nan nan nan nan nan nan nan nan nan nan nan nan nan nan nan nan nan nan nan nan nan nan nan nan nan nan nan
25 26 25 23 23 22 23 24 26 24 nan nan nan nan nan nan nan 23 23 22 20 18 18 17 17 17 16 16 15 16 17 17 13 15 15 16 16 16 nan nan nan nan nan nan nan nan nan nan nan nan nan nan nan nan nan nan nan nan nan nan nan nan nan nan nan nan nan nan nan nan nan nan nan nan nan nan nan nan nan nan nan nan nan nan nan
24 25 25 24 nan nan 23 23 25 23 nan nan nan nan nan nan nan nan nan 21 20 20 19 18 19 18 18 17 17 18 19 19 17 nan nan nan nan nan nan nan nan nan nan nan nan nan nan nan nan nan nan nan nan nan nan nan nan nan nan nan nan nan nan nan nan nan nan nan nan nan nan nan nan nan nan nan nan nan nan nan nan nan nan nan nan
24 24 25 24 nan nan nan 24 24 nan nan nan nan nan nan nan nan nan nan nan 21 21 19 19 20 19 19 19 20 20 21 21 nan nan nan nan nan nan nan nan nan nan nan nan nan nan nan nan nan nan nan nan nan nan nan nan nan nan nan nan nan nan nan nan nan nan nan nan nan nan nan nan nan nan nan nan nan nan nan nan nan nan nan nan nan
25 26 27 nan nan nan nan nan nan nan nan nan nan nan nan nan nan nan nan nan nan 21 20 20 20 19 20 20 20 21 21 21 nan nan nan nan nan nan nan nan nan nan nan nan nan nan nan nan nan nan nan nan nan nan nan nan nan nan nan nan nan nan nan nan nan nan nan nan nan nan nan nan nan nan nan nan nan nan nan nan nan nan nan nan nan
26 27 30 nan nan nan nan nan nan nan nan nan nan nan nan nan nan nan nan nan nan nan 21 21 21 20 21 21 22 nan nan nan nan nan nan nan nan nan nan nan nan nan nan nan nan nan nan nan nan nan nan nan nan nan nan nan nan nan nan nan nan nan nan nan nan nan nan nan nan nan nan nan nan nan nan nan nan nan nan nan nan nan nan nan nan
30 30 30 30 nan nan nan nan nan nan nan nan nan nan nan nan nan nan nan nan nan nan 23 22 21 nan nan 23 nan nan nan nan nan nan nan nan nan nan nan nan nan nan nan nan nan nan nan nan nan nan nan nan nan nan nan nan nan nan nan nan nan nan nan nan nan nan nan nan nan nan nan nan nan nan nan nan nan nan nan nan nan nan nan nan nan
30 29 31 nan nan nan nan nan nan nan nan nan nan nan nan nan nan nan nan nan nan nan nan 23 23 25 nan nan nan nan nan nan nan nan nan nan nan nan nan nan nan nan nan nan nan nan nan nan nan nan nan nan nan nan nan nan nan nan nan nan nan nan nan nan nan nan nan nan nan nan nan nan nan nan nan nan nan nan nan nan nan nan nan nan nan
30 31 34 32 nan nan nan nan 30 nan nan nan nan nan nan nan nan nan nan nan 25 26 nan nan nan nan nan nan nan nan nan nan nan nan nan nan nan nan nan nan nan nan nan nan nan nan nan nan nan nan nan nan nan nan nan nan nan nan nan nan nan nan nan nan nan nan nan nan nan nan nan nan nan nan nan nan nan nan nan nan nan nan nan nan nan
30 33 35 nan nan nan nan nan nan nan nan nan nan nan nan nan nan nan nan nan nan nan nan nan nan nan nan nan nan nan nan nan nan nan nan nan nan nan nan nan nan nan nan nan nan nan nan nan nan nan nan nan nan nan nan nan nan nan nan nan nan nan nan nan nan nan nan nan nan nan nan nan nan nan nan nan nan nan nan nan nan nan nan nan nan
33 36 32 nan nan nan nan nan nan nan nan nan nan nan nan nan nan nan nan nan nan nan nan 30 nan nan nan nan nan nan nan nan nan nan nan nan nan nan nan nan nan nan nan nan nan nan nan nan nan nan nan nan nan nan nan nan nan nan nan nan nan nan nan nan nan nan nan nan nan nan nan nan nan nan nan nan nan nan nan nan nan nan nan nan nan
36 34 nan nan nan nan nan nan nan nan nan nan nan nan nan nan nan nan nan nan nan nan nan nan nan nan nan nan nan nan nan nan nan nan nan nan nan nan nan nan nan nan nan nan nan nan nan nan nan nan nan nan nan nan nan nan nan 29 30 nan nan nan nan nan nan nan nan nan nan nan nan nan nan nan nan nan nan nan nan nan nan nan nan nan 63
nan nan nan nan nan nan nan nan nan nan nan nan nan nan nan nan nan nan nan nan nan nan nan nan nan nan nan nan nan nan nan nan nan 37 38 38 38 38 37 35 35 36 38 37 36 34 33 32 32 31 30 nan nan nan nan nan nan nan 36 36 32 32 37 39 39 40 41 45 47 50 nan nan nan nan nan 48 52 55 57 57 58 60 62 65 66
nan nan nan nan nan nan nan nan nan nan nan nan nan nan nan nan nan nan nan nan nan nan nan nan nan nan nan nan nan nan nan nan nan nan nan nan 41 39 37 35 35 35 37 37 36 36 35 33 32 31 30 nan nan nan nan nan nan nan nan 37 nan nan nan nan nan nan nan nan nan nan nan nan nan nan nan nan 59 nan nan nan 62 61 63 65 66
nan nan nan nan nan nan nan nan nan nan nan nan nan nan nan nan nan nan nan nan nan nan nan nan nan nan nan nan nan nan nan nan nan 42 nan nan nan nan 40 39 37 36 34 34 34 34 34 nan nan nan nan nan nan nan nan nan nan nan nan nan nan nan nan nan nan nan nan nan nan nan nan nan nan nan nan 61 67 68 68 69 70 68 63 62 66
nan nan nan nan nan nan nan nan nan nan nan nan nan nan nan nan nan nan nan nan nan nan nan nan nan nan nan nan nan nan nan nan nan nan nan nan nan nan nan nan nan nan nan nan nan nan nan nan nan nan nan nan nan nan nan nan nan nan nan nan nan nan nan nan nan nan nan nan nan nan nan nan nan nan nan nan nan 73 71 nan nan nan nan nan nan
nan nan nan nan nan nan nan nan nan nan nan nan nan nan nan nan nan nan nan nan nan nan nan nan nan nan nan nan nan nan nan nan nan nan nan nan nan nan nan nan nan nan nan nan nan nan nan nan nan nan nan nan nan nan nan nan nan nan nan nan nan nan nan nan nan nan nan nan nan nan nan nan nan nan nan nan nan nan nan nan nan nan nan nan nan
Wind_Direction
274 275 277 285 285 280 272 267 266 nan 268 266 263 259 nan nan nan 246 243 248 283 286 279 274 295 nan 293 301 306 311 310 306 303 291 nan nan 301 308 306 302 301 299 295 292 287 282 279 275 271 268 266 nan nan nan nan nan nan nan nan nan nan nan nan nan nan nan nan nan nan nan nan nan nan nan nan nan nan nan nan nan nan nan nan nan nan
274 276 283 286 283 276 270 268 263 258 260 nan nan nan nan nan nan nan 252 245 258 266 270 283 280 287 296 306 308 310 306 306 303 nan nan 305 306 307 307 304 306 304 297 292 285 275 268 nan nan nan nan nan nan nan nan nan nan nan nan nan nan nan nan nan nan nan nan nan nan nan nan nan nan nan nan nan nan nan nan nan nan nan nan nan nan
276 281 284 282 277 274 273 262 256 260 261 254 255 257 247 234 nan 253 nan nan 248 249 255 268 272 276 292 299 298 294 295 295 297 304 309 306 304 304 305 308 312 311 302 283 276 274 274 273 271 267 nan nan nan nan nan nan nan nan nan nan nan nan nan nan nan nan nan nan nan nan nan nan nan nan nan nan nan nan nan nan nan nan nan nan nan
274 277 281 277 275 274 271 258 247 246 256 258 261 247 244 249 248 245 nan nan 254 249 nan nan nan 273 284 285 286 292 295 297 303 311 310 304 nan nan nan 310 320 314 299 289 280 274 272 271 270 266 262 259 nan nan nan nan nan nan nan nan nan nan nan nan nan nan nan nan nan nan nan nan nan nan nan nan nan nan nan nan nan nan nan nan nan
271 276 274 273 276 273 267 255 239 243 246 244 249 247 231 211 240 229 238 nan nan nan 251 nan nan nan 271 275 282 288 293 298 309 310 307 309 nan nan nan 316 316 305 311 315 296 274 272 274 271 268 261 258 nan nan nan nan nan nan nan nan nan nan nan nan nan nan nan nan nan nan nan nan nan nan nan nan nan nan nan nan nan nan nan nan nan
273 273 269 271 274 270 263 251 240 240 244 244 254 262 247 230 235 233 236 243 nan nan nan nan nan nan 272 280 279 290 295 301 314 311 308 311 nan nan nan nan nan 304 307 309 282 263 251 260 273 266 261 nan nan nan nan nan nan nan nan nan nan nan nan nan nan nan nan nan nan nan nan nan nan nan nan nan nan nan nan nan nan nan nan nan nan
273 271 266 273 274 260 nan 247 242 242 244 244 259 265 266 249 244 242 234 237 nan 232 nan nan nan 277 281 287 286 287 291 303 311 310 309 312 nan nan nan nan 307 296 292 283 277 269 258 255 263 267 263 nan nan nan nan nan nan nan nan nan nan nan nan nan nan nan nan nan nan nan nan nan nan nan nan nan nan nan nan nan nan nan nan nan nan
271 268 267 273 267 248 242 243 242 247 247 247 256 263 265 248 243 250 251 235 234 nan nan nan 271 275 281 283 281 286 293 297 303 304 308 304 292 292 293 308 305 314 311 296 279 255 253 252 230 247 264 269 274 277 nan nan nan nan nan nan nan nan nan nan nan nan nan nan nan nan nan nan nan nan nan nan nan nan nan nan nan nan nan nan nan
267 267 267 266 257 nan 237 239 245 251 245 253 256 254 254 252 251 241 nan nan nan nan nan nan 275 272 279 282 276 282 282 288 294 302 309 301 302 294 305 323 325 303 311 306 273 235 239 232 229 206 239 264 274 277 284 nan nan nan nan nan nan nan nan nan nan nan nan nan nan nan nan nan nan nan nan nan nan nan nan nan nan nan nan nan nan
262 266 264 258 253 nan 234 239 251 249 242 249 257 251 247 250 257 240 233 258 267 284 285 284 279 273 272 271 268 264 271 279 287 299 307 312 308 305 312 311 309 318 317 301 273 227 204 206 208 200 209 219 243 285 299 300 298 299 299 nan nan nan nan nan nan nan nan nan nan nan nan nan nan nan nan nan nan nan nan nan nan nan nan nan nan
261 266 267 261 249 237 234 242 253 250 247 250 249 248 250 237 249 249 229 240 280 284 291 286 279 269 265 264 262 264 263 271 285 300 310 323 324 312 292 292 280 312 318 312 300 236 220 200 206 187 195 209 218 251 271 285 302 311 314 315 312 309 nan nan nan nan nan nan nan nan nan nan nan nan nan nan nan nan nan nan nan nan nan nan nan
263 264 267 264 248 231 236 250 256 249 250 253 248 247 256 241 227 254 253 244 244 277 288 284 273 267 264 258 258 270 266 270 280 286 304 311 316 311 309 317 272 295 310 317 315 225 189 204 204 201 201 210 214 212 242 251 265 314 320 313 312 313 318 313 nan nan nan nan nan nan nan nan nan nan nan nan nan nan nan nan nan nan nan nan nan
260 267 273 263 242 232 238 247 251 244 242 249 249 250 255 259 246 229 266 261 256 275 285 288 287 274 263 263 257 259 270 268 267 261 256 281 293 283 277 284 302 291 325 309 241 165 153 169 183 196 217 204 207 220 219 211 215 50 310 319 320 319 322 316 309 nan nan nan nan nan nan nan nan nan nan nan nan nan nan nan nan nan nan nan nan
256 259 262 252 240 237 242 253 251 243 239 242 nan 245 252 257 256 248 242 275 274 291 298 290 277 291 293 275 259 254 259 262 262 259 260 259 258 271 284 295 309 332 244 265 130 158 153 158 164 180 194 nan nan nan nan nan 192 193 276 351 342 345 311 321 317 316 318 nan nan nan nan nan nan 297 303 nan nan nan nan nan nan nan nan nan nan
253 254 250 240 241 243 nan 248 247 247 243 236 239 242 253 261 258 266 260 239 255 280 303 nan nan 274 267 266 267 263 259 256 251 244 256 270 260 262 267 281 269 174 196 238 269 168 157 163 174 179 185 185 183 192 192 197 198 189 183 88 1 357 329 321 321 323 321 323 326 326 328 326 325 323 nan 307 308 nan nan nan nan nan nan nan nan
251 244 232 234 244 240 234 240 243 242 247 243 240 250 256 246 247 263 269 267 261 274 278 260 283 nan nan nan 245 233 258 254 254 nan 244 261 262 259 239 225 251 219 201 222 211 nan 194 197 199 186 188 nan nan 191 193 193 209 213 210 227 209 336 346 328 322 322 323 326 326 326 323 332 336 315 310 299 294 298 308 nan nan nan nan nan 313
235 224 214 223 230 233 235 239 240 242 243 237 244 262 264 264 267 265 270 275 277 266 270 258 nan nan nan nan nan nan nan 253 260 nan 241 246 238 260 nan 265 255 219 215 227 199 214 228 228 211 196 199 nan 200 195 199 206 208 212 212 233 254 307 312 321 326 314 313 311 317 322 323 316 306 296 295 291 295 304 304 299 298 nan nan 287 nan
212 205 201 209 225 234 236 239 243 240 240 240 245 244 249 255 264 266 263 263 277 273 262 252 289 nan nan nan nan nan nan nan nan nan 247 239 235 237 249 251 247 218 211 228 226 222 nan nan 221 214 206 209 209 204 203 213 217 216 225 230 252 259 275 291 293 293 296 293 292 302 305 301 299 293 294 294 292 293 293 293 nan nan nan nan nan
205 204 212 219 229 233 237 238 243 240 239 245 246 248 246 248 253 259 266 264 261 269 269 277 258 223 255 nan 254 nan nan nan nan nan 272 252 239 237 232 231 233 233 226 nan nan 230 223 218 221 226 219 nan nan nan nan 219 224 nan 242 243 246 259 269 279 290 293 284 281 290 298 302 301 298 298 nan nan nan nan nan nan nan nan nan nan nan
215 216 221 229 231 231 234 237 240 241 243 243 244 240 240 240 254 257 260 264 267 267 268 278 287 250 246 nan 252 nan nan nan nan nan nan nan 267 237 231 nan 225 225 230 229 230 nan 228 224 228 nan nan nan nan nan nan nan nan nan 238 247 245 241 241 nan nan nan 279 285 284 290 293 293 291 nan nan nan nan nan nan nan nan nan nan nan nan
217 220 223 225 229 233 236 237 239 240 238 240 236 239 240 246 250 252 257 256 257 257 266 282 271 264 253 244 260 nan nan nan nan nan nan 280 259 260 256 235 221 213 224 nan nan nan 223 233 238 nan nan nan nan nan nan nan nan nan nan 252 251 nan nan nan nan nan nan nan nan 291 292 293 293 nan nan nan nan nan nan nan nan nan nan nan nan
212 215 223 233 235 236 241 241 242 242 239 240 238 240 240 246 251 251 250 252 243 256 270 270 265 257 259 267 nan nan nan nan nan nan nan nan 278 282 272 264 246 212 nan nan nan nan 219 nan nan nan nan nan nan nan nan nan nan nan nan 254 nan nan nan nan nan nan nan nan nan nan nan nan nan nan nan nan nan nan nan nan nan nan nan nan nan
218 221 239 244 243 246 248 244 244 245 244 245 248 250 249 250 248 244 243 248 248 251 250 255 261 263 258 nan nan nan nan nan nan nan nan nan nan 261 251 nan nan nan nan nan nan nan nan nan nan nan nan nan nan nan nan nan nan nan nan nan nan nan nan nan nan nan nan nan nan nan nan nan nan nan nan nan nan nan nan nan nan nan nan nan nan
236 241 240 242 249 250 248 247 248 248 249 247 245 251 252 250 247 244 241 239 242 250 251 258 258 261 260 nan nan nan nan nan nan nan nan nan nan nan nan nan nan nan nan nan nan nan nan nan nan nan nan nan nan nan nan nan nan nan nan nan nan nan nan nan nan nan nan nan nan nan nan nan nan nan nan nan nan nan nan nan nan nan nan nan nan
240 245 237 243 249 251 249 253 252 252 250 245 245 249 252 253 249 242 241 243 246 250 254 257 264 265 265 251 nan nan nan nan nan nan nan nan nan nan nan nan nan nan nan nan nan nan nan nan nan nan nan nan nan nan nan nan nan nan nan nan nan nan nan nan nan nan nan nan nan nan nan nan nan nan nan nan nan nan nan nan nan nan nan nan nan
240 239 238 243 247 251 253 255 255 255 253 250 249 248 248 249 247 245 243 244 247 250 254 255 258 257 255 256 248 255 nan 268 274 nan nan nan nan nan nan nan nan nan nan nan nan nan nan nan nan nan nan nan nan nan nan nan nan nan nan nan nan nan nan nan nan nan nan nan nan nan nan nan nan nan nan nan nan nan nan nan nan nan nan nan nan
240 236 238 244 246 249 252 254 256 256 251 250 249 245 243 243 243 244 242 243 249 253 253 257 260 257 252 nan nan nan nan 270 277 281 nan nan nan nan nan nan nan nan nan nan nan nan nan nan nan nan nan nan nan nan nan nan nan nan nan nan nan nan nan nan nan nan nan nan nan nan nan nan nan nan nan nan nan nan nan nan nan nan nan nan nan
236 240 235 242 246 249 248 253 255 253 250 250 249 248 244 244 241 241 243 242 250 252 256 259 262 261 258 248 248 nan nan nan 276 281 289 290 nan nan nan nan nan nan nan nan nan nan nan nan nan nan nan nan nan nan nan nan nan nan nan nan nan nan nan nan nan nan nan nan nan nan nan nan nan nan nan nan nan nan nan nan nan nan nan nan nan
241 237 233 234 247 249 245 249 250 247 246 246 249 249 248 247 245 242 245 243 250 253 254 262 262 260 257 258 257 258 262 264 267 274 278 272 nan nan nan nan nan nan nan nan nan nan nan nan nan nan nan nan nan nan nan nan nan nan nan nan nan nan nan nan nan nan nan nan nan nan nan nan nan nan nan nan nan nan nan nan nan nan nan nan nan
240 232 229 234 244 244 243 244 245 244 246 246 248 250 250 251 247 244 245 247 248 247 251 258 260 256 257 256 254 261 255 265 272 272 270 268 nan nan nan nan nan nan nan nan nan nan nan nan nan nan nan nan nan nan nan nan nan nan nan nan nan nan nan nan nan nan nan nan nan nan nan nan nan nan nan nan nan nan nan nan nan nan nan nan nan
236 230 228 233 240 241 241 241 243 245 246 250 252 253 253 253 248 247 243 247 250 251 251 256 256 259 260 261 259 260 257 259 262 267 261 nan nan nan nan nan nan nan nan nan nan nan nan nan nan nan nan nan nan nan nan nan nan nan nan nan nan nan nan nan nan nan nan nan nan nan nan nan nan nan nan nan nan nan nan nan nan nan nan nan nan
232 228 230 234 237 240 239 242 241 244 249 253 258 257 255 254 252 251 246 248 251 253 254 253 257 259 261 262 264 268 262 255 258 265 264 nan nan nan nan nan nan nan nan nan nan nan nan nan nan nan nan nan nan nan nan nan nan nan nan nan nan nan nan nan nan nan nan nan nan nan nan nan nan nan nan nan nan nan nan nan nan nan nan nan nan
233 230 235 241 240 238 240 242 243 243 249 254 258 261 259 256 253 252 250 252 255 254 255 255 255 259 263 264 264 264 262 262 264 268 268 263 261 nan nan nan nan nan nan nan nan nan nan nan nan nan nan nan nan nan nan nan nan nan nan nan nan nan nan nan nan nan nan nan nan nan nan nan nan nan nan nan nan nan nan nan nan nan nan nan nan
237 236 239 245 247 245 241 243 243 243 246 253 257 261 262 260 256 252 254 253 255 257 255 254 253 256 259 266 265 263 262 269 267 261 nan 273 271 256 251 nan nan nan nan nan nan nan nan nan nan nan nan nan nan nan nan nan nan nan nan nan nan nan nan nan nan nan nan nan nan nan nan nan nan nan nan nan nan nan nan nan nan nan nan nan nan
236 238 239 246 253 250 245 245 243 242 246 nan 255 nan 261 262 260 255 256 257 257 257 254 254 256 254 258 264 266 263 263 257 244 258 261 266 257 257 253 nan nan nan nan nan nan nan nan nan nan nan nan nan nan nan nan nan nan nan nan nan nan nan nan nan nan nan nan nan nan nan nan nan nan nan nan nan nan nan nan nan nan nan nan nan nan
240 239 241 243 247 246 245 244 244 242 nan nan nan nan nan nan nan 259 257 258 257 255 255 256 258 260 264 264 264 266 267 276 273 258 259 249 252 255 nan nan nan nan nan nan nan nan nan nan nan nan nan nan nan nan nan nan nan nan nan nan nan nan nan nan nan nan nan nan nan nan nan nan nan nan nan nan nan nan nan nan nan nan nan nan nan
242 241 241 242 nan nan 242 244 243 242 nan nan nan nan nan nan nan nan nan 259 257 254 256 261 265 266 267 268 265 266 265 268 258 nan nan nan nan nan nan nan nan nan nan nan nan nan nan nan nan nan nan nan nan nan nan nan nan nan nan nan nan nan nan nan nan nan nan nan nan nan nan nan nan nan nan nan nan nan nan nan nan nan nan nan nan
241 237 241 242 nan nan nan 239 240 nan nan nan nan nan nan nan nan nan nan nan 257 257 258 262 266 267 269 265 265 263 264 265 nan nan nan nan nan nan nan nan nan nan nan nan nan nan nan nan nan nan nan nan nan nan nan nan nan nan nan nan nan nan nan nan nan nan nan nan nan nan nan nan nan nan nan nan nan nan nan nan nan nan nan nan nan
240 230 232 nan nan nan nan nan nan nan nan nan nan nan nan nan nan nan nan nan nan 258 261 263 265 270 272 270 265 261 264 267 nan nan nan nan nan nan nan nan nan nan nan nan nan nan nan nan nan nan nan nan nan nan nan nan nan nan nan nan nan nan nan nan nan nan nan nan nan nan nan nan nan nan nan nan nan nan nan nan nan nan nan nan nan
240 233 233 nan nan nan nan nan nan nan nan nan nan nan nan nan nan nan nan nan nan nan 258 257 256 248 253 256 262 nan nan nan nan nan nan nan nan nan nan nan nan nan nan nan nan nan nan nan nan nan nan nan nan nan nan nan nan nan nan nan nan nan nan nan nan nan nan nan nan nan nan nan nan nan nan nan nan nan nan nan nan nan nan nan nan
233 236 244 245 nan nan nan nan nan nan nan nan nan nan nan nan nan nan nan nan nan nan 255 253 254 nan nan 257 nan nan nan nan nan nan nan nan nan nan nan nan nan nan nan nan nan nan nan nan nan nan nan nan nan nan nan nan nan nan nan nan nan nan nan nan nan nan nan nan nan nan nan nan nan nan nan nan nan nan nan nan nan nan nan nan nan
236 242 247 nan nan nan nan nan nan nan nan nan nan nan nan nan nan nan nan nan nan nan nan 254 251 246 nan nan nan nan nan nan nan nan nan nan nan nan nan nan nan nan nan nan nan nan nan nan nan nan nan nan nan nan nan nan nan nan nan nan nan nan nan nan nan nan nan nan nan nan nan nan nan nan nan nan nan nan nan nan nan nan nan nan nan
237 241 246 241 nan nan nan nan 240 nan nan nan nan nan nan nan nan nan nan nan 255 260 nan nan nan nan nan nan nan nan nan nan nan nan nan nan nan nan nan nan nan nan nan nan nan nan nan nan nan nan nan nan nan nan nan nan nan nan nan nan nan nan nan nan nan nan nan nan nan nan nan nan nan nan nan nan nan nan nan nan nan nan nan nan nan
235 238 241 nan nan nan nan nan nan nan nan nan nan nan nan nan nan nan nan nan nan nan nan nan nan nan nan nan nan nan nan nan nan nan nan nan nan nan nan nan nan nan nan nan nan nan nan nan nan nan nan nan nan nan nan nan nan nan nan nan nan nan nan nan nan nan nan nan nan nan nan nan nan nan nan nan nan nan nan nan nan nan nan nan nan
234 237 238 nan nan nan nan nan nan nan nan nan nan nan nan nan nan nan nan nan nan nan nan 258 nan nan nan nan nan nan nan nan nan nan nan nan nan nan nan nan nan nan nan nan nan nan nan nan nan nan nan nan nan nan nan nan nan nan nan nan nan nan nan nan nan nan nan nan nan nan nan nan nan nan nan nan nan nan nan nan nan nan nan nan nan
234 236 nan nan nan nan nan nan nan nan nan nan nan nan nan nan nan nan nan nan nan nan nan nan nan nan nan nan nan nan nan nan nan nan nan nan nan nan nan nan nan nan nan nan nan nan nan nan nan nan nan nan nan nan nan nan nan 278 277 nan nan nan nan nan nan nan nan nan nan nan nan nan nan nan nan nan nan nan nan nan nan nan nan nan 303
nan nan nan nan nan nan nan nan nan nan nan nan nan nan nan nan nan nan nan nan nan nan nan nan nan nan nan nan nan nan nan nan nan 275 272 271 271 271 271 270 272 275 276 272 268 266 265 266 267 270 271 nan nan nan nan nan nan nan 287 291 296 295 290 288 290 291 290 295 292 290 nan nan nan nan nan 295 295 296 296 298 301 303 304 304 305
nan nan nan nan nan nan nan nan nan nan nan nan nan nan nan nan nan nan nan nan nan nan nan nan nan nan nan nan nan nan nan nan nan nan nan nan 272 270 267 265 267 273 276 277 274 271 271 270 270 272 273 nan nan nan nan nan nan nan nan 292 nan nan nan nan nan nan nan nan nan nan nan nan nan nan nan nan 287 nan nan nan 292 297 302 304 304
nan nan nan nan nan nan nan nan nan nan nan nan nan nan nan nan nan nan nan nan nan nan nan nan nan nan nan nan nan nan nan nan nan 258 nan nan nan nan 267 268 270 271 268 266 260 256 255 nan nan nan nan nan nan nan nan nan nan nan nan nan nan nan nan nan nan nan nan nan nan nan nan nan nan nan nan 283 284 284 282 284 285 284 288 295 296
nan nan nan nan nan nan nan nan nan nan nan nan nan nan nan nan nan nan nan nan nan nan nan nan nan nan nan nan nan nan nan nan nan nan nan nan nan nan nan nan nan nan nan nan nan nan nan nan nan nan nan nan nan nan nan nan nan nan nan nan nan nan nan nan nan nan nan nan nan nan nan nan nan nan nan nan nan 284 284 nan nan nan nan nan nan
nan nan nan nan nan nan nan nan nan nan nan nan nan nan nan nan nan nan nan nan nan nan nan nan nan nan nan nan nan nan nan nan nan nan nan nan nan nan nan nan nan nan nan nan nan nan nan nan nan nan nan nan nan nan nan nan nan nan nan nan nan nan nan nan nan nan nan nan nan nan nan nan nan nan nan nan nan nan nan nan nan nan nan nan nan